星链-35340(STARLINK-35340)

导读

STARLINK-35340是美国太空探索技术公司(SpaceX)于2025年10月16日发射的星链(Starlink)系列低轨通信卫星,归属美国星链互联网星座项目。该卫星运行在近550公里高度的近地轨道,采用平板设计与氪工质霍尔推进器,具备自主避撞能力,旨在为全球提供宽带互联网接入服务,服役末期可主动离轨再入大气层销毁。

Basic Information
目录编号:
66022
目录名称:
STARLINK-35340
国际标识:
2025-232T
轨道中心:
EARTH
卫星名称:
星链-35340
卫星全名:
星链-35340(STARLINK-35340)
卫星状态:
在轨 (已飞行323 天)
发射日期:
2025-10-16 UTC
国别 :
美国 (US)
星等 :
--
Orbit Information
数据来源 国际轨道数据
星历时间: 2026-09-04T00:16:12+0800
14小时前
查看轨道信息
半长轴: 6840.868km
偏心率: 0.0001347
轨道倾角: 53.160°
近地点辐角 87.879°
升交点赤经 356.654°
平近点角 272.236°
近地点: 461.809km
远地点: 463.653km
周期: 93.848分钟
每日圈数: 15.343908
Detailed Information
固有亮度:
5
最大亮度:
2.5
卫星平台:
Starlink V1.0
覆盖范围:
全球
运营商:
太空探索技术公司
运营商所在国:
美国
制造商(研发单位):
太空探索技术公司
制造商所在国:
美国
使用方式:
暂无
Satellite Introduction
Starlink 计划是 SpaceX 推出的全球卫星互联网项目,通过发射低轨道卫星,为全球尤其是偏远地区提供高速、低延迟的互联网服务。自 2019 年起,Starlink 已部署数千颗卫星,旨在缩小全球数字鸿沟,推动互联网普及。该项目还为军事、航空等行业提供通信支持,带来广泛经济效益。
2D Orbit Map
3D Orbit Map
Orbit Altitude Analysis Chart
Orbit Inclination Analysis Chart
Orbit Comprehensive Analysis Chart
View Comprehensive Chart
Conjunction Data List
Event ID Objects TCA Miss Dist (km) Collision Risk Probability Collision Risk Index (CRI) Action
CDM_260905-112006-060406-602221
2026-09-05T
11:20:35+0000
1.107 km
极远距离
1.635514E-5 中风险 0.59
CDM_260828-010004-840506-602221
2026-08-28T
01:00:00+0000
1.941 km
极远距离
2.5905E-6 低风险 0.43
CDM_260905-125406-060406-602221
2026-09-05T
12:54:22+0000
1.979 km
极远距离
2.565511E-6 低风险 0.43
CDM_260827-190105-258406-602221
2026-08-27T
19:01:45+0000
1.613 km
极远距离
2.31692E-6 低风险 0.42
CDM_260902-200005-378906-602221
2026-09-02T
20:00:11+0000
2.134 km
极远距离
2.154384E-6 低风险 0.42
CDM_260904-074604-941406-602222
2026-09-04T
07:46:32+0000
2.252 km
极远距离
1.863167E-6 低风险 0.4
CDM_260827-214505-898006-602221
2026-08-27T
21:45:20+0000
2.387 km
极远距离
1.702614E-6 低风险 0.4
CDM_260829-193505-326606-602221
2026-08-29T
19:35:10+0000
2.541 km
极远距离
1.345293E-6 低风险 0.38
CDM_260827-212805-883806-602221
2026-08-27T
21:28:37+0000
2.726 km
极远距离
1.167519E-6 低风险 0.36
CDM_260905-055705-420606-602221
2026-09-05T
05:57:51+0000
2.934 km
极远距离
1.14952E-6 低风险 0.36